Year,Month,Day,Hour,Minute,Value (Times are PST for temperature in C)
2013,09,12,00,00,20.70
2013,09,12,00,01,20.70
2013,09,12,00,02,20.70
2013,09,12,00,03,20.70
2013,09,12,00,04,20.70
2013,09,12,00,05,20.70
2013,09,12,00,06,20.70
2013,09,12,00,07,20.70
2013,09,12,00,08,20.70
2013,09,12,00,09,20.70
2013,09,12,00,10,20.70
2013,09,12,00,11,20.70
2013,09,12,00,12,20.70
2013,09,12,00,13,20.70
2013,09,12,00,14,20.70
2013,09,12,00,15,20.70
2013,09,12,00,16,20.70
2013,09,12,00,17,20.70
2013,09,12,00,18,20.70
2013,09,12,00,19,20.60
2013,09,12,00,20,20.60
2013,09,12,00,21,20.60
2013,09,12,00,22,20.60
2013,09,12,00,23,20.50
2013,09,12,00,24,20.50
2013,09,12,00,25,20.40
2013,09,12,00,26,20.40
2013,09,12,00,27,20.40
2013,09,12,00,28,20.40
2013,09,12,00,29,20.40
2013,09,12,00,30,20.40
2013,09,12,00,31,20.50
2013,09,12,00,32,20.50
2013,09,12,00,33,20.40
2013,09,12,00,34,20.40
2013,09,12,00,35,20.30
2013,09,12,00,36,20.30
2013,09,12,00,37,20.20
2013,09,12,00,38,20.10
2013,09,12,00,39,20.10
2013,09,12,00,40,20.10
2013,09,12,00,41,20.00
2013,09,12,00,42,20.00
2013,09,12,00,43,20.00
2013,09,12,00,44,20.00
2013,09,12,00,45,20.00
2013,09,12,00,46,20.00
2013,09,12,00,47,19.90
2013,09,12,00,48,19.90
2013,09,12,00,49,19.90
2013,09,12,00,50,19.90
2013,09,12,00,51,19.90
2013,09,12,00,52,19.90
2013,09,12,00,53,19.80
2013,09,12,00,54,19.80
2013,09,12,00,55,19.80
2013,09,12,00,56,19.70
2013,09,12,00,57,19.70
2013,09,12,00,58,19.70
2013,09,12,00,59,19.70
2013,09,12,01,00,19.70
2013,09,12,01,01,19.70
2013,09,12,01,02,19.70
2013,09,12,01,03,19.70
2013,09,12,01,04,19.70
2013,09,12,01,05,19.70
2013,09,12,01,06,19.80
2013,09,12,01,07,19.80
2013,09,12,01,08,19.80
2013,09,12,01,09,19.80
2013,09,12,01,10,19.80
2013,09,12,01,11,19.80
2013,09,12,01,12,19.80
2013,09,12,01,13,19.80
2013,09,12,01,14,19.80
2013,09,12,01,15,19.80
2013,09,12,01,16,19.80
2013,09,12,01,17,19.80
2013,09,12,01,18,19.80
2013,09,12,01,19,19.70
2013,09,12,01,20,19.70
2013,09,12,01,21,19.70
2013,09,12,01,22,19.60
2013,09,12,01,23,19.60
2013,09,12,01,24,19.50
2013,09,12,01,25,19.50
2013,09,12,01,26,19.50
2013,09,12,01,27,19.40
2013,09,12,01,28,19.40
2013,09,12,01,29,19.40
2013,09,12,01,30,19.30
2013,09,12,01,31,19.30
2013,09,12,01,32,19.30
2013,09,12,01,33,19.20
2013,09,12,01,34,19.20
2013,09,12,01,35,19.10
2013,09,12,01,36,19.10
2013,09,12,01,37,19.10
2013,09,12,01,38,19.10
2013,09,12,01,39,19.10
2013,09,12,01,40,19.10
2013,09,12,01,41,19.10
2013,09,12,01,42,19.10
2013,09,12,01,43,19.10
2013,09,12,01,44,19.20
2013,09,12,01,45,19.20
2013,09,12,01,46,19.20
2013,09,12,01,47,19.20
2013,09,12,01,48,19.30
2013,09,12,01,49,19.30
2013,09,12,01,50,19.40
2013,09,12,01,51,19.40
2013,09,12,01,52,19.50
2013,09,12,01,53,19.50
2013,09,12,01,54,19.60
2013,09,12,01,55,19.70
2013,09,12,01,56,19.70
2013,09,12,01,57,19.80
2013,09,12,01,58,19.80
2013,09,12,01,59,19.80
2013,09,12,02,00,19.90
2013,09,12,02,01,19.90
2013,09,12,02,02,20.00
2013,09,12,02,03,20.10
2013,09,12,02,04,20.10
2013,09,12,02,05,20.20
2013,09,12,02,06,20.20
2013,09,12,02,07,20.30
2013,09,12,02,08,20.30
2013,09,12,02,09,20.30
2013,09,12,02,10,20.40
2013,09,12,02,11,20.40
2013,09,12,02,12,20.40
2013,09,12,02,13,20.40
2013,09,12,02,14,20.40
2013,09,12,02,15,20.40
2013,09,12,02,16,20.40
2013,09,12,02,17,20.40
2013,09,12,02,18,20.40
2013,09,12,02,19,20.40
2013,09,12,02,20,20.40
2013,09,12,02,21,20.50
2013,09,12,02,22,20.50
2013,09,12,02,23,20.50
2013,09,12,02,24,20.50
2013,09,12,02,25,20.40
2013,09,12,02,26,20.40
2013,09,12,02,27,20.40
2013,09,12,02,28,20.40
2013,09,12,02,29,20.30
2013,09,12,02,30,20.30
2013,09,12,02,31,20.30
2013,09,12,02,32,20.30
2013,09,12,02,33,20.20
2013,09,12,02,34,20.20
2013,09,12,02,35,20.30
2013,09,12,02,36,20.30
2013,09,12,02,37,20.20
2013,09,12,02,38,20.20
2013,09,12,02,39,20.20
2013,09,12,02,40,20.20
2013,09,12,02,41,20.20
2013,09,12,02,42,20.20
2013,09,12,02,43,20.20
2013,09,12,02,44,20.10
2013,09,12,02,45,20.10
2013,09,12,02,46,20.10
2013,09,12,02,47,20.00
2013,09,12,02,48,20.00
2013,09,12,02,49,19.90
2013,09,12,02,50,19.90
2013,09,12,02,51,19.90
2013,09,12,02,52,19.80
2013,09,12,02,53,19.80
2013,09,12,02,54,19.80
2013,09,12,02,55,19.70
2013,09,12,02,56,19.70
2013,09,12,02,57,19.60
2013,09,12,02,58,19.60
2013,09,12,02,59,19.60
2013,09,12,03,00,19.60
2013,09,12,03,01,19.60
2013,09,12,03,02,19.50
2013,09,12,03,03,19.50
2013,09,12,03,04,19.50
2013,09,12,03,05,19.50
2013,09,12,03,06,19.40
2013,09,12,03,07,19.40
2013,09,12,03,08,19.40
2013,09,12,03,09,19.40
2013,09,12,03,10,19.40
2013,09,12,03,11,19.40
2013,09,12,03,12,19.40
2013,09,12,03,13,19.30
2013,09,12,03,14,19.30
2013,09,12,03,15,19.30
2013,09,12,03,16,19.30
2013,09,12,03,17,19.30
2013,09,12,03,18,19.40
2013,09,12,03,19,19.40
2013,09,12,03,20,19.40
2013,09,12,03,21,19.40
2013,09,12,03,22,19.40
2013,09,12,03,23,19.40
2013,09,12,03,24,19.40
2013,09,12,03,25,19.40
2013,09,12,03,26,19.40
2013,09,12,03,27,19.30
2013,09,12,03,28,19.30
2013,09,12,03,29,19.30
2013,09,12,03,30,19.30
2013,09,12,03,31,19.20
2013,09,12,03,32,19.20
2013,09,12,03,33,19.20
2013,09,12,03,34,19.20
2013,09,12,03,35,19.10
2013,09,12,03,36,19.10
2013,09,12,03,37,19.10
2013,09,12,03,38,19.10
2013,09,12,03,39,19.10
2013,09,12,03,40,19.00
2013,09,12,03,41,19.00
2013,09,12,03,42,18.90
2013,09,12,03,43,18.90
2013,09,12,03,44,18.90
2013,09,12,03,45,18.90
2013,09,12,03,46,18.90
2013,09,12,03,47,18.90
2013,09,12,03,48,18.80
2013,09,12,03,49,18.80
2013,09,12,03,50,18.80
2013,09,12,03,51,18.80
2013,09,12,03,52,18.80
2013,09,12,03,53,18.70
2013,09,12,03,54,18.70
2013,09,12,03,55,18.70
2013,09,12,03,56,18.70
2013,09,12,03,57,18.70
2013,09,12,03,58,18.60
2013,09,12,03,59,18.60
2013,09,12,04,00,18.60
2013,09,12,04,01,18.60
2013,09,12,04,02,18.60
2013,09,12,04,03,18.60
2013,09,12,04,04,18.60
2013,09,12,04,05,18.60
2013,09,12,04,06,18.60
2013,09,12,04,07,18.60
2013,09,12,04,08,18.60
2013,09,12,04,09,18.60
2013,09,12,04,10,18.60
2013,09,12,04,11,18.70
2013,09,12,04,12,18.70
2013,09,12,04,13,18.70
2013,09,12,04,14,18.80
2013,09,12,04,15,18.80
2013,09,12,04,16,18.90
2013,09,12,04,17,18.90
2013,09,12,04,18,18.90
2013,09,12,04,19,19.00
2013,09,12,04,20,19.10
2013,09,12,04,21,19.10
2013,09,12,04,22,19.10
2013,09,12,04,23,19.20
2013,09,12,04,24,19.20
2013,09,12,04,25,19.20
2013,09,12,04,26,19.30
2013,09,12,04,27,19.30
2013,09,12,04,28,19.30
2013,09,12,04,29,19.30
2013,09,12,04,30,19.40
2013,09,12,04,31,19.40
2013,09,12,04,32,19.40
2013,09,12,04,33,19.50
2013,09,12,04,34,19.50
2013,09,12,04,35,19.50
2013,09,12,04,36,19.60
2013,09,12,04,37,19.60
2013,09,12,04,38,19.60
2013,09,12,04,39,19.60
2013,09,12,04,40,19.60
2013,09,12,04,41,19.60
2013,09,12,04,42,19.60
2013,09,12,04,43,19.60
2013,09,12,04,44,19.60
2013,09,12,04,45,19.60
2013,09,12,04,46,19.60
2013,09,12,04,47,19.60
2013,09,12,04,48,19.60
2013,09,12,04,49,19.60
2013,09,12,04,50,19.60
2013,09,12,04,51,19.60
2013,09,12,04,52,19.60
2013,09,12,04,53,19.60
2013,09,12,04,54,19.60
2013,09,12,04,55,19.60
2013,09,12,04,56,19.50
2013,09,12,04,57,19.50
2013,09,12,04,58,19.50
2013,09,12,04,59,19.50
2013,09,12,05,00,19.40
2013,09,12,05,01,19.40
2013,09,12,05,02,19.40
2013,09,12,05,03,19.40
2013,09,12,05,04,19.40
2013,09,12,05,05,19.40
2013,09,12,05,06,19.40
2013,09,12,05,07,19.40
2013,09,12,05,08,19.30
2013,09,12,05,09,19.30
2013,09,12,05,10,19.30
2013,09,12,05,11,19.30
2013,09,12,05,12,19.30
2013,09,12,05,13,19.30
2013,09,12,05,14,19.20
2013,09,12,05,15,19.20
2013,09,12,05,16,19.20
2013,09,12,05,17,19.20
2013,09,12,05,18,19.20
2013,09,12,05,19,19.10
2013,09,12,05,20,19.10
2013,09,12,05,21,19.10
2013,09,12,05,22,19.10
2013,09,12,05,23,19.10
2013,09,12,05,24,19.10
2013,09,12,05,25,19.00
2013,09,12,05,26,19.00
2013,09,12,05,27,18.90
2013,09,12,05,28,18.90
2013,09,12,05,29,18.90
2013,09,12,05,30,18.90
2013,09,12,05,31,18.90
2013,09,12,05,32,18.90
2013,09,12,05,33,18.90
2013,09,12,05,34,18.90
2013,09,12,05,35,18.90
2013,09,12,05,36,18.90
2013,09,12,05,37,18.90
2013,09,12,05,38,18.90
2013,09,12,05,39,18.90
2013,09,12,05,40,18.90
2013,09,12,05,41,18.90
2013,09,12,05,42,18.90
2013,09,12,05,43,18.90
2013,09,12,05,44,18.90
2013,09,12,05,45,18.90
2013,09,12,05,46,18.90
2013,09,12,05,47,18.90
2013,09,12,05,48,18.90
2013,09,12,05,49,18.90
2013,09,12,05,50,18.90
2013,09,12,05,51,18.90
2013,09,12,05,52,18.90
2013,09,12,05,53,18.90
2013,09,12,05,54,18.90
2013,09,12,05,55,18.90
2013,09,12,05,56,18.90
2013,09,12,05,57,18.90
2013,09,12,05,58,18.90
2013,09,12,05,59,18.90
2013,09,12,06,00,18.90
2013,09,12,06,01,18.90
2013,09,12,06,02,18.90
2013,09,12,06,03,18.90
2013,09,12,06,04,18.90
2013,09,12,06,05,18.90
2013,09,12,06,06,18.90
2013,09,12,06,07,18.90
2013,09,12,06,08,18.90
2013,09,12,06,09,18.80
2013,09,12,06,10,18.80
2013,09,12,06,11,18.80
2013,09,12,06,12,18.80
2013,09,12,06,13,18.80
2013,09,12,06,14,18.70
2013,09,12,06,15,18.70
2013,09,12,06,16,18.70
2013,09,12,06,17,18.70
2013,09,12,06,18,18.70
2013,09,12,06,19,18.70
2013,09,12,06,20,18.60
2013,09,12,06,21,18.60
2013,09,12,06,22,18.60
2013,09,12,06,23,18.60
2013,09,12,06,24,18.50
2013,09,12,06,25,18.40
2013,09,12,06,26,18.40
2013,09,12,06,27,18.40
2013,09,12,06,28,18.40
2013,09,12,06,29,18.30
2013,09,12,06,30,18.30
2013,09,12,06,31,18.30
2013,09,12,06,32,18.30
2013,09,12,06,33,18.20
2013,09,12,06,34,18.20
2013,09,12,06,35,18.20
2013,09,12,06,36,18.20
2013,09,12,06,37,18.20
2013,09,12,06,38,18.20
2013,09,12,06,39,18.20
2013,09,12,06,40,18.10
2013,09,12,06,41,18.10
2013,09,12,06,42,18.10
2013,09,12,06,43,18.10
2013,09,12,06,44,18.10
2013,09,12,06,45,18.10
2013,09,12,06,46,18.10
2013,09,12,06,47,18.10
2013,09,12,06,48,18.10
2013,09,12,06,49,18.10
2013,09,12,06,50,18.20
2013,09,12,06,51,18.20
2013,09,12,06,52,18.20
2013,09,12,06,53,18.20
2013,09,12,06,54,18.20
2013,09,12,06,55,18.20
2013,09,12,06,56,18.20
2013,09,12,06,57,18.20
2013,09,12,06,58,18.20
2013,09,12,06,59,18.20
2013,09,12,07,00,18.20
2013,09,12,07,01,18.20
2013,09,12,07,02,18.20
2013,09,12,07,03,18.20
2013,09,12,07,04,18.20
2013,09,12,07,05,18.30
2013,09,12,07,06,18.30
2013,09,12,07,07,18.30
2013,09,12,07,08,18.30
2013,09,12,07,09,18.30
2013,09,12,07,10,18.30
2013,09,12,07,11,18.30
2013,09,12,07,12,18.30
2013,09,12,07,13,18.30
2013,09,12,07,14,18.30
2013,09,12,07,15,18.30
2013,09,12,07,16,18.30
2013,09,12,07,17,18.30
2013,09,12,07,18,18.30
2013,09,12,07,19,18.30
2013,09,12,07,20,18.30
2013,09,12,07,21,18.30
2013,09,12,07,22,18.30
2013,09,12,07,23,18.30
2013,09,12,07,24,18.30
2013,09,12,07,25,18.30
2013,09,12,07,26,18.30
2013,09,12,07,27,18.30
2013,09,12,07,28,18.30
2013,09,12,07,29,18.30
2013,09,12,07,30,18.30
2013,09,12,07,31,18.30
2013,09,12,07,32,18.30
2013,09,12,07,33,18.30
2013,09,12,07,34,18.30
2013,09,12,07,35,18.30
2013,09,12,07,36,18.40
2013,09,12,07,37,18.40
2013,09,12,07,38,18.40
2013,09,12,07,39,18.40
2013,09,12,07,40,18.40
2013,09,12,07,41,18.40
2013,09,12,07,42,18.50
2013,09,12,07,43,18.50
2013,09,12,07,44,18.50
2013,09,12,07,45,18.50
2013,09,12,07,46,18.50
2013,09,12,07,47,18.60
2013,09,12,07,48,18.60
2013,09,12,07,49,18.60
2013,09,12,07,50,18.70
2013,09,12,07,51,18.70
2013,09,12,07,52,18.70
2013,09,12,07,53,18.70
2013,09,12,07,54,18.80
2013,09,12,07,55,18.80
2013,09,12,07,56,18.80
2013,09,12,07,57,18.90
2013,09,12,07,58,18.90
2013,09,12,07,59,18.90
2013,09,12,08,00,19.00
2013,09,12,08,01,19.00
2013,09,12,08,02,19.10
2013,09,12,08,03,19.10
2013,09,12,08,04,19.20
2013,09,12,08,05,19.30
2013,09,12,08,06,19.40
2013,09,12,08,07,19.50
2013,09,12,08,08,19.60
2013,09,12,08,09,19.70
2013,09,12,08,10,19.80
2013,09,12,08,11,19.80
2013,09,12,08,12,19.80
2013,09,12,08,13,19.80
2013,09,12,08,14,19.80
2013,09,12,08,15,19.80
2013,09,12,08,16,19.80
2013,09,12,08,17,19.80
2013,09,12,08,18,19.80
2013,09,12,08,19,19.80
2013,09,12,08,20,19.80
2013,09,12,08,21,19.80
2013,09,12,08,22,19.90
2013,09,12,08,23,19.90
2013,09,12,08,24,20.00
2013,09,12,08,25,20.10
2013,09,12,08,26,20.20
2013,09,12,08,27,20.20
2013,09,12,08,28,20.40
2013,09,12,08,29,20.40
2013,09,12,08,30,20.50
2013,09,12,08,31,20.60
2013,09,12,08,32,20.70
2013,09,12,08,33,20.80
2013,09,12,08,34,20.80
2013,09,12,08,35,20.90
2013,09,12,08,36,21.00
2013,09,12,08,37,21.10
2013,09,12,08,38,21.10
2013,09,12,08,39,21.20
2013,09,12,08,40,21.20
2013,09,12,08,41,21.20
2013,09,12,08,42,21.20
2013,09,12,08,43,21.20
2013,09,12,08,44,21.20
2013,09,12,08,45,21.20
2013,09,12,08,46,21.30
2013,09,12,08,47,21.30
2013,09,12,08,48,21.30
2013,09,12,08,49,21.30
2013,09,12,08,50,21.40
2013,09,12,08,51,21.40
2013,09,12,08,52,21.40
2013,09,12,08,53,21.40
2013,09,12,08,54,21.40
2013,09,12,08,55,21.40
2013,09,12,08,56,21.40
2013,09,12,08,57,21.50
2013,09,12,08,58,21.50
2013,09,12,08,59,21.60
2013,09,12,09,00,21.60
2013,09,12,09,01,21.60
2013,09,12,09,02,21.60
2013,09,12,09,03,21.60
2013,09,12,09,04,21.60
2013,09,12,09,05,21.70
2013,09,12,09,06,21.70
2013,09,12,09,07,21.80
2013,09,12,09,08,21.80
2013,09,12,09,09,21.80
2013,09,12,09,10,21.80
2013,09,12,09,11,21.80
2013,09,12,09,12,21.80
2013,09,12,09,13,21.80
2013,09,12,09,14,21.80
2013,09,12,09,15,21.80
2013,09,12,09,16,21.80
2013,09,12,09,17,21.80
2013,09,12,09,18,21.80
2013,09,12,09,19,21.80
2013,09,12,09,20,21.80
2013,09,12,09,21,21.80
2013,09,12,09,22,21.80
2013,09,12,09,23,21.80
2013,09,12,09,24,21.80
2013,09,12,09,25,21.80
2013,09,12,09,26,21.80
2013,09,12,09,27,21.80
2013,09,12,09,28,21.80
2013,09,12,09,29,21.90
2013,09,12,09,30,22.00
2013,09,12,09,31,22.10
2013,09,12,09,32,22.10
2013,09,12,09,33,22.10
2013,09,12,09,34,22.10
2013,09,12,09,35,22.10
2013,09,12,09,36,22.10
2013,09,12,09,37,22.10
2013,09,12,09,38,22.10
2013,09,12,09,39,22.10
2013,09,12,09,40,22.20
2013,09,12,09,41,22.20
2013,09,12,09,42,22.20
2013,09,12,09,43,22.30
2013,09,12,09,44,22.30
2013,09,12,09,45,22.30
2013,09,12,09,46,22.30
2013,09,12,09,47,22.30
2013,09,12,09,48,22.30
2013,09,12,09,49,22.30
2013,09,12,09,50,22.30
2013,09,12,09,51,22.30
2013,09,12,09,52,22.20
2013,09,12,09,53,22.20
2013,09,12,09,54,22.20
2013,09,12,09,55,22.30
2013,09,12,09,56,22.30
2013,09,12,09,57,22.40
2013,09,12,09,58,22.50
2013,09,12,09,59,22.50
2013,09,12,10,00,22.50
2013,09,12,10,01,22.50
2013,09,12,10,02,22.50
2013,09,12,10,03,22.40
2013,09,12,10,04,22.40
2013,09,12,10,05,22.40
2013,09,12,10,06,22.30
2013,09,12,10,07,22.30
2013,09,12,10,08,22.30
2013,09,12,10,09,22.30
2013,09,12,10,10,22.40
2013,09,12,10,11,22.40
2013,09,12,10,12,22.50
2013,09,12,10,13,22.50
2013,09,12,10,14,22.60
2013,09,12,10,15,22.60
2013,09,12,10,16,22.60
2013,09,12,10,17,22.50
2013,09,12,10,18,22.40
2013,09,12,10,19,22.40
2013,09,12,10,20,22.40
2013,09,12,10,21,22.30
2013,09,12,10,22,22.30
2013,09,12,10,23,22.30
2013,09,12,10,24,22.30
2013,09,12,10,25,22.40
2013,09,12,10,26,22.50
2013,09,12,10,27,22.50
2013,09,12,10,28,22.40
2013,09,12,10,29,22.40
2013,09,12,10,30,22.40
2013,09,12,10,31,22.40
2013,09,12,10,32,22.40
2013,09,12,10,33,22.50
2013,09,12,10,34,22.50
2013,09,12,10,35,22.60
2013,09,12,10,36,22.60
2013,09,12,10,37,22.70
2013,09,12,10,38,22.80
2013,09,12,10,39,22.90
2013,09,12,10,40,22.90
2013,09,12,10,41,22.90
2013,09,12,10,42,22.90
2013,09,12,10,43,22.80
2013,09,12,10,44,22.80
2013,09,12,10,45,22.80
2013,09,12,10,46,22.80
2013,09,12,10,47,22.80
2013,09,12,10,48,22.80
2013,09,12,10,49,22.70
2013,09,12,10,50,22.70
2013,09,12,10,51,22.70
2013,09,12,10,52,22.70
2013,09,12,10,53,22.70
2013,09,12,10,54,22.80
2013,09,12,10,55,22.90
2013,09,12,10,56,23.00
2013,09,12,10,57,23.10
2013,09,12,10,58,23.20
2013,09,12,10,59,23.20
2013,09,12,11,00,23.30
2013,09,12,11,01,23.20
2013,09,12,11,02,23.20
2013,09,12,11,03,23.10
2013,09,12,11,04,23.00
2013,09,12,11,05,22.90
2013,09,12,11,06,22.80
2013,09,12,11,07,22.60
2013,09,12,11,08,22.50
2013,09,12,11,09,22.40
2013,09,12,11,10,22.30
2013,09,12,11,11,22.30
2013,09,12,11,12,22.20
2013,09,12,11,13,22.20
2013,09,12,11,14,22.30
2013,09,12,11,15,22.30
2013,09,12,11,16,22.30
2013,09,12,11,17,22.30
2013,09,12,11,18,22.30
2013,09,12,11,19,22.30
2013,09,12,11,20,22.40
2013,09,12,11,21,22.40
2013,09,12,11,22,22.40
2013,09,12,11,23,22.30
2013,09,12,11,24,22.30
2013,09,12,11,25,22.20
2013,09,12,11,26,22.20
2013,09,12,11,27,22.10
2013,09,12,11,28,22.10
2013,09,12,11,29,22.00
2013,09,12,11,30,22.00
2013,09,12,11,31,22.00
2013,09,12,11,32,22.00
2013,09,12,11,33,22.00
2013,09,12,11,34,22.10
2013,09,12,11,35,22.20
2013,09,12,11,36,22.20
2013,09,12,11,37,22.30
2013,09,12,11,38,22.30
2013,09,12,11,39,22.30
2013,09,12,11,40,22.30
2013,09,12,11,41,22.30
2013,09,12,11,42,22.30
2013,09,12,11,43,22.40
2013,09,12,11,44,22.50
2013,09,12,11,45,22.60
2013,09,12,11,46,22.70
2013,09,12,11,47,22.80
2013,09,12,11,48,22.90
2013,09,12,11,49,23.00
2013,09,12,11,50,23.10
2013,09,12,11,51,23.20
2013,09,12,11,52,23.30
2013,09,12,11,53,23.30
2013,09,12,11,54,23.40
2013,09,12,11,55,23.50
2013,09,12,11,56,23.50
2013,09,12,11,57,23.60
2013,09,12,11,58,23.60
2013,09,12,11,59,23.70
2013,09,12,12,00,23.70
2013,09,12,12,01,23.70
2013,09,12,12,02,23.70
2013,09,12,12,03,23.60
2013,09,12,12,04,23.40
2013,09,12,12,05,23.30
2013,09,12,12,06,23.20
2013,09,12,12,07,23.20
2013,09,12,12,08,23.10
2013,09,12,12,09,23.10
2013,09,12,12,10,23.10
2013,09,12,12,11,23.00
2013,09,12,12,12,23.00
2013,09,12,12,13,23.00
2013,09,12,12,14,22.90
2013,09,12,12,15,22.80
2013,09,12,12,16,22.80
2013,09,12,12,17,22.80
2013,09,12,12,18,22.90
2013,09,12,12,19,23.00
2013,09,12,12,20,23.00
2013,09,12,12,21,23.00
2013,09,12,12,22,23.10
2013,09,12,12,23,23.10
2013,09,12,12,24,23.20
2013,09,12,12,25,23.30
2013,09,12,12,26,23.30
2013,09,12,12,27,23.40
2013,09,12,12,28,23.40
2013,09,12,12,29,23.50
2013,09,12,12,30,23.50
2013,09,12,12,31,23.60
2013,09,12,12,32,23.70
2013,09,12,12,33,23.80
2013,09,12,12,34,23.80
2013,09,12,12,35,23.90
2013,09,12,12,36,23.90
2013,09,12,12,37,23.90
2013,09,12,12,38,23.90
2013,09,12,12,39,23.90
2013,09,12,12,40,23.90
2013,09,12,12,41,23.90
2013,09,12,12,42,23.90
2013,09,12,12,43,23.80
2013,09,12,12,44,23.80
2013,09,12,12,45,23.80
2013,09,12,12,46,23.80
2013,09,12,12,47,23.70
2013,09,12,12,48,23.70
2013,09,12,12,49,23.70
2013,09,12,12,50,23.60
2013,09,12,12,51,23.60
2013,09,12,12,52,23.50
2013,09,12,12,53,23.40
2013,09,12,12,54,23.20
2013,09,12,12,55,23.00
2013,09,12,12,56,22.90
2013,09,12,12,57,22.70
2013,09,12,12,58,22.50
2013,09,12,12,59,22.40
2013,09,12,13,00,22.40
2013,09,12,13,01,22.30
2013,09,12,13,02,22.30
2013,09,12,13,03,22.40
2013,09,12,13,04,22.40
2013,09,12,13,05,22.50
2013,09,12,13,06,22.70
2013,09,12,13,07,22.80
2013,09,12,13,08,23.00
2013,09,12,13,09,23.10
2013,09,12,13,10,23.20
2013,09,12,13,11,23.40
2013,09,12,13,12,23.50
2013,09,12,13,13,23.60
2013,09,12,13,14,23.60
2013,09,12,13,15,23.70
2013,09,12,13,16,23.70
2013,09,12,13,17,23.80
2013,09,12,13,18,23.80
2013,09,12,13,19,23.90
2013,09,12,13,20,23.90
2013,09,12,13,21,24.00
2013,09,12,13,22,24.10
2013,09,12,13,23,24.10
2013,09,12,13,24,24.20
2013,09,12,13,25,24.30
2013,09,12,13,26,24.40
2013,09,12,13,27,24.40
2013,09,12,13,28,24.40
2013,09,12,13,29,24.40
2013,09,12,13,30,24.40
2013,09,12,13,31,24.40
2013,09,12,13,32,24.40
2013,09,12,13,33,24.30
2013,09,12,13,34,24.30
2013,09,12,13,35,24.30
2013,09,12,13,36,24.30
2013,09,12,13,37,24.30
2013,09,12,13,38,24.20
2013,09,12,13,39,24.20
2013,09,12,13,40,24.30
2013,09,12,13,41,24.30
2013,09,12,13,42,24.30
2013,09,12,13,43,24.30
2013,09,12,13,44,24.30
2013,09,12,13,45,24.30
2013,09,12,13,46,24.20
2013,09,12,13,47,24.10
2013,09,12,13,48,24.10
2013,09,12,13,49,24.10
2013,09,12,13,50,24.10
2013,09,12,13,51,24.10
2013,09,12,13,52,24.10
2013,09,12,13,53,24.10
2013,09,12,13,54,24.10
2013,09,12,13,55,24.10
2013,09,12,13,56,24.00
2013,09,12,13,57,24.00
2013,09,12,13,58,24.00
2013,09,12,13,59,24.10
2013,09,12,14,00,24.10
2013,09,12,14,01,24.10
2013,09,12,14,02,24.10
2013,09,12,14,03,24.00
2013,09,12,14,04,24.00
2013,09,12,14,05,24.00
2013,09,12,14,06,23.90
2013,09,12,14,07,23.90
2013,09,12,14,08,23.90
2013,09,12,14,09,23.90
2013,09,12,14,10,23.90
2013,09,12,14,11,23.90
2013,09,12,14,12,23.90
2013,09,12,14,13,23.90
2013,09,12,14,14,23.90
2013,09,12,14,15,23.90
2013,09,12,14,16,24.00
2013,09,12,14,17,24.00
2013,09,12,14,18,24.00
2013,09,12,14,19,24.00
2013,09,12,14,20,24.00
2013,09,12,14,21,24.00
2013,09,12,14,22,24.00
2013,09,12,14,23,24.00
2013,09,12,14,24,24.00
2013,09,12,14,25,23.90
2013,09,12,14,26,23.90
2013,09,12,14,27,23.90
2013,09,12,14,28,23.80
2013,09,12,14,29,23.80
2013,09,12,14,30,23.70
2013,09,12,14,31,23.60
2013,09,12,14,32,23.60
2013,09,12,14,33,23.50
2013,09,12,14,34,23.40
2013,09,12,14,35,23.40
2013,09,12,14,36,23.40
2013,09,12,14,37,23.30
2013,09,12,14,38,23.20
2013,09,12,14,39,23.20
2013,09,12,14,40,23.20
2013,09,12,14,41,23.20
2013,09,12,14,42,23.20
2013,09,12,14,43,23.20
2013,09,12,14,44,23.20
2013,09,12,14,45,23.20
2013,09,12,14,46,23.30
2013,09,12,14,47,23.30
2013,09,12,14,48,23.30
2013,09,12,14,49,23.30
2013,09,12,14,50,23.30
2013,09,12,14,51,23.30
2013,09,12,14,52,23.30
2013,09,12,14,53,23.30
2013,09,12,14,54,23.30
2013,09,12,14,55,23.30
2013,09,12,14,56,23.40
2013,09,12,14,57,23.40
2013,09,12,14,58,23.50
2013,09,12,14,59,23.50
2013,09,12,15,00,23.60
2013,09,12,15,01,23.60
2013,09,12,15,02,23.60
2013,09,12,15,03,23.60
2013,09,12,15,04,23.60
2013,09,12,15,05,23.60
2013,09,12,15,06,23.60
2013,09,12,15,07,23.70
2013,09,12,15,08,23.70
2013,09,12,15,09,23.70
2013,09,12,15,10,23.80
2013,09,12,15,11,23.80
2013,09,12,15,12,23.80
2013,09,12,15,13,23.80
2013,09,12,15,14,23.80
2013,09,12,15,15,23.80
2013,09,12,15,16,23.70
2013,09,12,15,17,23.80
2013,09,12,15,18,23.80
2013,09,12,15,19,23.80
2013,09,12,15,20,23.80
2013,09,12,15,21,23.80
2013,09,12,15,22,23.90
2013,09,12,15,23,23.90
2013,09,12,15,24,24.00
2013,09,12,15,25,24.10
2013,09,12,15,26,24.10
2013,09,12,15,27,24.20
2013,09,12,15,28,24.30
2013,09,12,15,29,24.30
2013,09,12,15,30,24.30
2013,09,12,15,31,24.40
2013,09,12,15,32,24.40
2013,09,12,15,33,24.40
2013,09,12,15,34,24.40
2013,09,12,15,35,24.50
2013,09,12,15,36,24.50
2013,09,12,15,37,24.40
2013,09,12,15,38,24.40
2013,09,12,15,39,24.40
2013,09,12,15,40,24.40
2013,09,12,15,41,24.40
2013,09,12,15,42,24.40
2013,09,12,15,43,24.40
2013,09,12,15,44,24.40
2013,09,12,15,45,24.50
2013,09,12,15,46,24.50
2013,09,12,15,47,24.60
2013,09,12,15,48,24.60
2013,09,12,15,49,24.60
2013,09,12,15,50,24.70
2013,09,12,15,51,24.80
2013,09,12,15,52,24.80
2013,09,12,15,53,24.90
2013,09,12,15,54,25.00
2013,09,12,15,55,25.20
2013,09,12,15,56,25.30
2013,09,12,15,57,25.40
2013,09,12,15,58,25.50
2013,09,12,15,59,25.60
2013,09,12,16,00,25.80
2013,09,12,16,01,25.90
2013,09,12,16,02,25.90
2013,09,12,16,03,25.90
2013,09,12,16,04,25.90
2013,09,12,16,05,25.90
2013,09,12,16,06,25.90
2013,09,12,16,07,25.90
2013,09,12,16,08,25.90
2013,09,12,16,09,25.90
2013,09,12,16,10,25.90
2013,09,12,16,11,25.90
2013,09,12,16,12,25.90
2013,09,12,16,13,26.00
2013,09,12,16,14,26.00
2013,09,12,16,15,26.00
2013,09,12,16,16,26.00
2013,09,12,16,17,26.00
2013,09,12,16,18,26.00
2013,09,12,16,19,26.00
2013,09,12,16,20,26.10
2013,09,12,16,21,26.10
2013,09,12,16,22,26.10
2013,09,12,16,23,26.00
2013,09,12,16,24,26.00
2013,09,12,16,25,25.90
2013,09,12,16,26,25.90
2013,09,12,16,27,25.90
2013,09,12,16,28,25.90
2013,09,12,16,29,25.90
2013,09,12,16,30,25.90
2013,09,12,16,31,25.90
2013,09,12,16,32,25.90
2013,09,12,16,33,25.90
2013,09,12,16,34,25.90
2013,09,12,16,35,25.90
2013,09,12,16,36,26.00
2013,09,12,16,37,26.00
2013,09,12,16,38,26.10
2013,09,12,16,39,26.20
2013,09,12,16,40,26.20
2013,09,12,16,41,26.20
2013,09,12,16,42,26.20
2013,09,12,16,43,26.10
2013,09,12,16,44,26.10
2013,09,12,16,45,26.00
2013,09,12,16,46,25.90
2013,09,12,16,47,25.90
2013,09,12,16,48,25.90
2013,09,12,16,49,25.90
2013,09,12,16,50,25.90
2013,09,12,16,51,25.90
2013,09,12,16,52,25.90
2013,09,12,16,53,26.00
2013,09,12,16,54,26.10
2013,09,12,16,55,26.10
2013,09,12,16,56,26.10
2013,09,12,16,57,26.20
2013,09,12,16,58,26.20
2013,09,12,16,59,26.10
2013,09,12,17,00,26.10
2013,09,12,17,01,26.10
2013,09,12,17,02,26.10
2013,09,12,17,03,26.10
2013,09,12,17,04,26.00
2013,09,12,17,05,25.90
2013,09,12,17,06,25.90
2013,09,12,17,07,25.90
2013,09,12,17,08,25.80
2013,09,12,17,09,25.80
2013,09,12,17,10,25.80
2013,09,12,17,11,25.90
2013,09,12,17,12,25.90
2013,09,12,17,13,25.90
2013,09,12,17,14,26.00
2013,09,12,17,15,26.10
2013,09,12,17,16,26.20
2013,09,12,17,17,26.30
2013,09,12,17,18,26.30
2013,09,12,17,19,26.40